Startseite
Über Mich
AHP4
Galerie
Sehschlangen
Tourenbuch
Bookmarks
Elektronik
Bewertung
Geschichten
[Tagesmessung] [Jahreswerte] [Information]

Messwerte vom 02.01.2022

Die letzten Messwerte von 23:58:47 Uhr:
KategorieMesswert
Temperatur [°C]10
Luftdruck [mBar]992
Sonneneinstrahlung0
Wind [km/h]5 aus West
Niederschlag [l/m²]0
rel.Luftfeucht.88.3%
CO2 [ppm]737

Diagramme
Messwerte vom 02.01.2022
Tagesaggregation
KategorieMinimumMaximumSchnittSumme
Temperatur [°C]51410.0854
Luftdruck [mBar]9911003995.7688
Sonneneinstrahlung24050.0771
Wind [km/h]25
rF [%]70.896.690.37
Niederschlag [l/m²]0
CO2 [ppm]521948750.1
Einordnung alsVegetationstag

Messungen an benachbarten Tagen: Zur Jahresaggregation 2022
Tabelle aller Messwerte
UhrzeitTemperatur [°C]Luftdruck [mBar]SonneWind [km/h]RichtungRegen [l/m²]rF [%]CO2 [ppm]
00:01:47 8 1003 0 1 SO 0 96.6 946
00:04:49 8 1003 0 0 SO 0 96.6 947
00:07:47 8 1003 0 0 S 0 96.6 948
00:10:48 8 1003 0 0 SO 0 96.6 937
00:13:48 8 1003 0 0 NO 0 96.6 937
00:16:48 8 1003 0 0 NO 0 96.6 926
00:19:49 8 1002 0 0 SO 0 96.6 938
00:22:45 8 1002 0 0 SO 0 96.6 939
00:25:46 7 1002 0 0 O 0 96.6 933
00:28:47 7 1003 0 0 N 0 96.6 919
00:31:46 7 1003 0 0 N 0 96.6 913
00:34:48 7 1003 0 0 N 0 96.6 923
00:37:49 7 1002 0 1 SO 0 96.6 923
00:40:50 7 1003 0 2 SO 0 96.6 935
00:43:50 7 1002 0 2 SO 0 96.6 917
00:46:48 7 1002 0 2 SO 0 96.6 910
00:49:49 7 1002 0 2 SO 0 96.6 902
00:52:45 7 1002 0 0 O 0 96.6 896
00:55:47 7 1002 0 0 N 0 96.6 890
00:58:46 7 1002 0 1 N 0 96.6 887
01:01:47 7 1002 0 0 NO 0 96.6 890
01:04:48 7 1002 0 1 SO 0 96.6 883
01:07:48 6 1002 0 0 SO 0 96.6 881
01:10:47 6 1002 0 1 SO 0 96.6 888
01:13:48 6 1002 0 0 SO 0 96.6 890
01:16:46 6 1002 0 0 SO 0 96.6 888
01:19:50 6 1002 0 0 SO 0 96.6 878
01:22:48 6 1002 0 0 SO 0 96.6 870
01:25:47 6 1002 0 0 SO 0 96.6 864
01:28:48 6 1002 0 0 NW 0 96.6 861
01:31:46 6 1002 0 0 N 0 96.6 864
01:34:48 6 1002 0 0 N 0 96.6 878
01:37:47 6 1002 0 0 S 0 96.6 869
01:40:49 6 1002 0 0 SO 0 96.6 864
01:43:47 6 1002 0 0 SO 0 96.6 858
01:46:48 6 1002 0 0 SO 0 96.6 859
01:49:48 6 1002 0 0 SO 0 96.6 867
01:52:45 6 1002 0 3 S 0 96.6 863
01:55:48 6 1002 0 0 NW 0 96.6 862
01:58:48 6 1002 0 1 NW 0 96.6 849
02:01:47 6 1002 0 1 NW 0 96.6 859
02:04:50 6 1002 0 0 NW 0 96.6 855
02:07:49 6 1002 0 0 NW 0 96.6 855
02:10:49 6 1003 0 0 NW 0 96.6 854
02:13:47 6 1002 0 0 NW 0 96.6 851
02:16:48 6 1002 0 0 NW 0 96.6 849
02:19:48 6 1002 0 0 NW 0 96.6 854
02:22:49 5 1002 0 0 SO 0 96.6 852
02:25:45 5 1002 0 0 N 0 96.6 854
02:28:47 5 1002 0 1 N 0 96.6 849
02:31:47 5 1002 0 0 N 0 96.6 844
02:34:47 5 1002 0 0 N 0 96.6 840
02:37:48 5 1002 0 0 N 0 96.6 829
02:40:46 5 1001 0 0 O 0 96.6 834
02:43:50 5 1001 0 0 NW 0 96.6 824
02:46:50 5 1001 0 0 NO 0 96.6 823
02:49:47 5 1001 0 0 SO 0 96.6 817
02:52:49 5 1002 0 0 SO 0 96.6 811
02:55:48 5 1002 0 0 NW 0 96.6 814
02:58:48 5 1002 0 0 N 0 96.6 805
03:01:46 6 1001 0 1 N 0 96.6 818
03:04:49 6 1001 0 0 SO 0 96.6 820
03:07:49 6 1001 0 0 SO 0 96.6 822
03:10:49 6 1001 0 0 NW 0 96.6 820
03:13:47 6 1001 0 0 NW 0 96.6 811
03:16:45 6 1001 0 0 O 0 96.6 806
03:19:46 6 1001 0 0 W 0 96.6 802
03:22:47 6 1000 0 0 S 0 96.6 807
03:25:49 6 1000 0 2 SO 0 96.6 819
03:28:45 6 1000 0 0 O 0 96.6 823
03:31:46 6 1001 0 0 N 0 96.6 813
03:34:44 6 1001 0 0 0 96.6 796
03:37:45 6 1001 0 0 0 96.6 790
03:40:44 6 1001 0 0 0 96.6 787
03:43:47 6 1001 0 0 0 96.6 786
03:46:48 6 1002 0 0 NW 0 96.6 788
03:49:50 6 1000 0 0 SO 0 96.6 791
03:52:47 6 1001 0 0 SO 0 96.6 796
03:55:49 6 1001 0 2 NW 0 96.6 797
03:58:46 6 1001 0 0 NW 0 96.6 794
04:01:48 7 1001 0 0 NW 0 96.6 791
04:04:49 7 1001 0 0 NW 0 96.6 790
04:07:48 7 1000 0 0 NW 0 96.6 787
04:10:47 7 1000 0 0 NW 0 96.6 772
04:13:47 7 1001 0 0 O 0 96.6 785
04:16:45 7 1000 0 2 S 0 96.6 785
04:19:47 7 1001 0 0 SW 0 96.6 781
04:22:47 8 1001 0 1 SW 0 96.6 781
04:25:46 8 1001 0 1 W 0 96.6 782
04:28:48 8 1000 0 0 W 0 96.6 772
04:31:45 8 1001 0 1 W 0 96.6 776
04:34:47 8 1001 0 0 NW 0 96.6 774
04:37:47 8 1001 0 1 W 0 96.6 767
04:40:48 8 1001 0 2 NW 0 96.6 768
04:43:48 8 1001 0 1 NW 0 96.6 775
04:46:49 8 1001 0 0 NW 0 96.6 777
04:49:46 8 1001 0 3 W 0 96.6 779
04:52:47 8 1001 0 0 SO 0 96.6 773
04:55:48 8 1001 0 0 SW 0 96.6 782
04:58:48 8 1000 0 0 O 0 96.6 774
05:01:49 8 1000 0 0 SO 0 96.6 789
05:04:48 8 1000 0 2 SW 0 96.6 778
05:07:47 8 1000 0 3 W 0 96.6 776
05:10:46 9 1000 0 0 O 0 96.6 776
05:13:48 9 1000 0 0 O 0 96.6 778
05:16:45 9 999 0 0 S 0 96.6 779
05:19:48 9 1000 0 2 S 0 96.6 780
05:22:47 9 1000 0 0 W 0 96.6 782
05:25:45 9 999 0 0 S 0 96.6 781
05:28:49 9 1000 0 0 SO 0 96.6 779
05:31:46 9 1000 0 0 W 0 96.6 775
05:34:46 9 999 0 2 W 0 96.6 779
05:37:49 9 999 0 2 NW 0 96.6 781
05:40:48 9 999 0 1 W 0 96.6 789
05:43:47 9 999 0 0 NW 0 96.6 789
05:46:46 9 999 0 1 SO 0 96.6 785
05:49:46 9 999 0 1 SW 0 96.6 784
05:52:45 9 999 0 0 W 0 96.6 782
05:55:47 9 999 0 0 SO 0 96.6 781
05:58:46 9 998 0 0 S 0 96.6 779
06:01:48 9 998 0 0 NO 0 96.6 776
06:04:48 9 999 0 0 SO 0 96.6 779
06:07:49 9 998 0 0 S 0 96.6 782
06:10:47 9 998 0 0 SO 0 96.6 784
06:13:47 10 998 0 2 SW 0 96.6 782
06:16:45 10 998 0 0 S 0 96.6 788
06:19:46 10 999 0 2 SW 0 96.6 790
06:22:45 10 999 0 9 S 0 96.6 795
06:25:47 10 998 0 3 SO 0 96.6 786
06:28:48 10 998 0 4 SW 0 96.5 785
06:31:47 10 998 0 6 S 0 96.5 788
06:34:47 10 998 0 5 S 0 95.6 790
06:37:47 10 998 0 2 SW 0 94.9 785
06:40:48 10 998 0 3 SW 0 94.2 775
06:43:47 10 998 0 2 SW 0 94 779
06:46:44 10 999 0 5 O 0 93.7 783
06:49:47 11 998 0 4 SW 0 93.4 790
06:52:46 11 998 0 4 S 0 93 787
06:55:46 11 998 0 6 S 0 93.1 787
06:58:50 11 998 0 3 NO 0 93.4 797
07:01:46 11 999 0 4 S 0 93.4 802
07:04:46 11 998 0 5 SO 0 93.6 803
07:07:48 11 998 0 6 S 0 93.4 803
07:10:47 11 999 0 3 SO 0 93.2 805
07:13:48 11 998 0 2 O 0 93.2 802
07:16:45 11 998 0 3 0 93.1 802
07:19:49 11 998 0 5 NW 0 92.9 810
07:22:47 11 998 0 4 SW 0 93.1 814
07:25:47 11 998 0 7 S 0 93 817
07:28:46 11 998 0 3 S 0 92.9 805
07:31:46 11 998 0 2 S 0 92.9 814
07:34:48 11 998 0 4 S 0 92.8 824
07:37:48 11 998 0 6 SW 0 92.7 829
07:40:48 11 998 0 3 SW 0 92.7 829
07:43:45 11 998 0 3 S 0 92.8 829
07:46:47 11 998 0 1 SO 0 93 830
07:49:47 11 999 0 3 SO 0 93.2 821
07:52:46 11 998 0 4 W 0 93.1 823
07:55:46 11 998 0 5 S 0 93.2 823
07:58:46 11 998 0 6 SW 0 93.4 831
08:01:49 11 998 0 4 NW 0 93.5 822
08:04:48 11 998 4 3 SW 0 93.6 828
08:07:48 11 998 6 3 S 0 93.6 838
08:10:46 11 998 8 4 S 0 93.9 842
08:13:47 11 998 10 3 SW 0 94.4 849
08:16:49 11 998 14 4 SO 0 94.6 837
08:19:48 11 998 21 3 S 0 94.9 833
08:22:47 11 998 28 7 W 0 95 834
08:25:48 11 998 35 3 O 0 95.4 838
08:28:46 11 998 41 1 S 0 95.5 838
08:31:48 11 998 45 1 S 0 95.5 832
08:34:48 11 998 51 8 SW 0 95.6 826
08:37:48 11 998 58 5 SO 0 95.5 821
08:40:46 11 998 69 3 S 0 95.5 825
08:43:47 11 998 79 5 W 0 95.6 835
08:46:48 11 998 88 4 NO 0 95.5 846
08:49:48 11 998 93 3 SO 0 95.5 850
08:52:47 11 998 96 4 S 0 95.3 860
08:55:50 11 998 98 8 S 0 95.3 858
08:58:48 11 998 97 6 S 0 95.2 857
09:01:50 11 998 99 3 NO 0 95 861
09:04:49 11 998 102 3 O 0 94.7 866
09:07:49 11 998 104 2 SO 0 94.6 863
09:10:48 11 998 104 2 SW 0 94.6 865
09:13:48 11 998 106 2 S 0 94.8 864
09:16:49 11 998 112 3 S 0 94.9 867
09:19:50 11 998 123 2 NW 0 95.1 878
09:22:49 11 998 128 3 S 0 95.2 882
09:25:49 11 998 137 6 SO 0 95.4 886
09:28:49 11 998 141 6 S 0 95.4 887
09:31:50 11 998 145 1 S 0 95.3 897
09:34:48 11 998 142 2 SO 0 95.1 899
09:37:51 11 998 142 2 SO 0 94.8 895
09:40:48 11 998 150 6 SO 0 94.6 901
09:43:48 11 997 156 5 SO 0 94.5 886
09:46:50 11 998 162 4 SW 0 94.5 898
09:49:46 11 997 165 7 S 0 94.5 900
09:52:49 11 998 171 5 SW 0 94.6 901
09:55:48 11 998 175 6 S 0 94.6 895
09:58:49 11 998 178 6 NW 0 94.5 888
10:01:47 11 997 180 2 S 0 94.3 882
10:04:46 11 997 176 1 S 0 94.1 878
10:07:46 11 998 171 4 W 0 93.7 879
10:10:46 11 998 169 9 S 0 93.6 874
10:13:46 11 997 166 4 S 0 93.3 879
10:16:47 11 997 164 3 S 0 93.4 873
10:19:49 11 997 169 3 S 0 93.6 875
10:22:50 11 997 167 3 SW 0 93.6 875
10:25:46 11 997 164 8 SO 0 93.7 882
10:28:46 11 996 162 1 W 0 93.7 875
10:31:47 11 996 161 3 SO 0 93.7 873
10:34:48 11 997 155 3 SW 0 93.7 870
10:37:50 11 996 152 2 SO 0 93.9 864
10:40:47 11 996 152 3 SO 0 94.2 857
10:43:46 11 996 154 2 W 0 94.2 847
10:46:45 11 996 154 4 W 0 94.3 844
10:49:49 11 995 153 6 W 0 94.3 852
10:52:46 11 995 155 4 NO 0 94.3 852
10:55:48 11 995 164 7 SW 0 93.8 852
10:58:45 11 995 171 5 S 0 93.4 837
11:01:48 11 995 177 7 SO 0 93 835
11:04:49 12 995 186 3 SW 0 92.7 833
11:07:45 12 996 191 6 O 0 92.7 837
11:10:48 12 995 195 6 S 0 92.4 836
11:13:45 12 995 196 4 SW 0 92.1 831
11:16:46 12 996 195 7 W 0 91.4 826
11:19:47 12 995 190 5 W 0 90.8 822
11:22:50 12 995 183 17 NW 0 90.6 822
11:25:45 12 995 177 8 O 0 90.2 817
11:28:47 12 995 176 5 SW 0 90.1 809
11:31:47 12 995 164 7 S 0 89.9 802
11:34:47 12 995 169 4 SW 0 89.4 802
11:37:47 12 995 164 9 S 0 89.3 802
11:40:50 12 995 164 3 SW 0 89.3 802
11:43:47 12 995 175 6 S 0 89.6 793
11:46:46 11 995 179 4 S 0 89.4 788
11:49:49 12 995 185 11 SO 0 89.4 778
11:52:47 12 995 185 7 W 0 88.9 780
11:55:47 12 995 178 8 O 0 89.4 785
11:58:50 12 995 187 11 SW 0 89.3 782
12:01:50 12 995 186 10 SO 0 89.2 780
12:04:46 12 995 186 4 S 0 89.2 770
12:07:48 12 995 185 10 W 0 89.2 773
12:10:51 12 994 192 13 SO 0 88.4 764
12:13:50 12 995 193 2 SO 0 87.6 773
12:16:48 13 995 199 16 NW 0 87.2 761
12:19:48 13 995 193 8 N 0 86.5 755
12:22:48 13 994 193 14 SW 0 86.3 752
12:25:47 13 995 181 12 SO 0 85.7 751
12:28:48 13 994 187 6 S 0 85.1 748
12:31:50 13 994 182 9 SO 0 85.2 744
12:34:49 13 994 165 7 SW 0 85.1 740
12:37:46 13 994 152 11 S 0 85 734
12:40:48 13 994 160 9 S 0 84.8 726
12:43:48 13 994 165 10 S 0 84.9 732
12:46:48 13 994 170 16 SO 0 85 732
12:49:49 13 994 199 8 SO 0 84.5 725
12:52:49 13 993 207 6 SW 0 84.1 720
12:55:49 13 994 208 6 SO 0 83.5 715
12:58:48 13 993 215 5 O 0 82.7 705
13:01:47 13 993 203 7 S 0 82.6 705
13:04:48 13 992 172 7 SW 0 81.6 706
13:07:47 14 993 190 14 SW 0 79.8 702
13:10:49 14 992 196 8 S 0 79.7 692
13:13:50 14 992 193 8 SW 0 79.7 689
13:16:47 14 993 201 6 S 0 78.8 685
13:19:51 14 992 181 7 SO 0 78.6 692
13:22:48 14 992 158 3 SO 0 78.6 683
13:25:49 14 992 152 1 SO 0 78.7 684
13:28:46 14 992 159 11 S 0 79.1 682
13:31:47 14 993 165 11 SW 0 77.5 685
13:34:47 14 992 148 6 S 0 76.3 672
13:37:46 14 993 125 10 S 0 75.4 674
13:40:46 14 993 94 7 S 0 73.3 658
13:43:46 14 993 125 5 S 0 72.6 656
13:46:48 14 993 176 6 SO 0 73.1 653
13:49:49 14 993 209 11 NW 0 72.3 647
13:52:47 14 992 175 11 S 0 71.4 632
13:55:46 14 993 145 9 S 0 71.1 626
13:58:49 14 992 151 13 NW 0 70.8 629
14:01:49 14 992 172 6 SW 0 73.1 627
14:04:49 13 992 189 10 S 0 74.6 623
14:07:47 13 992 206 7 SO 0 75.7 614
14:10:48 13 992 219 11 S 0 76.9 615
14:13:50 13 992 205 15 SW 0 77.9 615
14:16:49 13 993 234 3 SO 0 78.3 615
14:19:48 13 993 211 10 S 0 78.6 617
14:22:50 13 991 208 11 S 0 78.4 605
14:25:47 13 991 221 14 SO 0 78.7 600
14:28:49 13 992 240 3 S 0 79.3 606
14:31:49 13 992 240 23 SW 0 79.3 609
14:34:51 12 992 240 6 SO 0 78.9 598
14:37:48 12 992 239 9 SO 0 79 588
14:40:51 12 992 236 10 SO 0 78.8 582
14:43:50 12 992 237 7 SO 0 79 586
14:46:47 12 992 228 5 S 0 79.5 579
14:49:47 12 992 213 8 NO 0 79.7 577
14:52:50 12 991 189 23 SW 0 79.8 583
14:55:47 12 992 175 15 S 0 79.6 579
14:58:47 12 992 168 9 O 0 79.7 576
15:01:49 12 992 159 7 SO 0 80.4 571
15:04:47 12 993 175 10 S 0 80.6 565
15:07:49 12 992 174 9 SW 0 80.6 568
15:10:47 12 992 155 4 S 0 80.7 576
15:13:46 12 992 131 14 O 0 81 574
15:16:46 12 992 110 6 S 0 81.3 564
15:19:50 12 992 112 5 SW 0 81.9 565
15:22:47 12 993 104 4 N 0 82.1 567
15:25:47 12 992 89 15 W 0 82.5 562
15:28:46 12 992 80 4 O 0 82.8 567
15:31:47 12 992 87 8 N 0 82.8 565
15:34:48 12 992 91 10 W 0 82.8 562
15:37:49 12 993 80 9 N 0 82.8 557
15:40:49 12 993 63 4 SW 0 82.8 559
15:43:47 12 992 53 7 S 0 82.8 554
15:46:49 12 992 48 9 S 0 82.9 561
15:49:50 12 992 45 8 S 0 82.9 553
15:52:48 12 993 35 8 S 0 83.2 556
15:55:47 12 992 34 5 S 0 83.5 553
15:58:48 11 992 34 4 SW 0 83.8 547
16:01:46 11 993 36 12 S 0 83.9 552
16:04:44 11 993 35 4 O 0 84 552
16:07:46 11 992 40 4 W 0 84.5 556
16:10:45 11 992 48 6 S 0 84.6 547
16:13:46 11 992 34 3 O 0 84.7 544
16:16:45 11 992 25 4 W 0 85 544
16:19:45 11 993 21 5 W 0 85.1 542
16:22:47 11 993 15 5 S 0 85 538
16:25:47 11 992 12 5 N 0 85.1 539
16:28:47 11 992 15 9 S 0 85.3 537
16:31:50 11 992 11 5 S 0 85.6 528
16:34:46 11 992 12 3 O 0 85.6 536
16:37:49 11 992 7 5 SO 0 85.8 530
16:40:47 11 992 3 11 S 0 85.8 524
16:43:48 11 992 0 6 SO 0 85.8 524
16:46:47 11 992 0 6 W 0 85.8 532
16:49:47 11 992 0 6 SO 0 85.8 533
16:52:46 11 992 0 12 SW 0 85.7 539
16:55:47 11 992 0 7 SW 0 85.5 538
16:58:44 11 993 0 2 S 0 85.5 541
17:01:46 11 993 0 6 S 0 85.4 533
17:04:46 11 992 0 9 W 0 85.4 530
17:07:48 11 992 0 5 SW 0 85 526
17:10:48 11 992 0 6 N 0 85 526
17:13:47 12 993 0 7 NW 0 84.8 527
17:16:45 12 993 0 2 W 0 84.7 524
17:19:46 12 993 0 8 S 0 84.6 521
17:22:46 12 993 0 8 SO 0 84.5 525
17:25:47 12 993 0 11 SW 0 84.2 533
17:28:44 12 993 0 4 W 0 84 533
17:31:47 12 993 0 7 W 0 83.8 542
17:34:45 12 992 0 8 W 0 83.7 547
17:37:48 12 993 0 1 SW 0 83.7 550
17:40:46 12 993 0 5 S 0 83.7 556
17:43:48 12 993 0 3 NW 0 83.7 562
17:46:45 12 993 0 5 S 0 83.7 574
17:49:45 11 992 0 8 S 0 83.8 576
17:52:46 11 992 0 6 S 0 84 576
17:55:46 11 993 0 6 0 84.2 578
17:58:45 11 992 0 1 W 0 84.3 580
18:01:47 11 993 0 5 SO 0 84.4 588
18:04:46 11 993 0 3 O 0 84.5 589
18:07:46 11 992 0 4 W 0 84.6 589
18:10:46 11 993 0 6 S 0 84.4 594
18:13:46 11 992 0 10 W 0 84.3 597
18:16:46 11 993 0 4 W 0 84.1 610
18:19:45 11 992 0 7 S 0 84.1 626
18:22:49 11 992 0 4 SW 0 84.6 635
18:25:47 11 994 0 6 SW 0 84.8 638
18:28:48 11 993 0 1 NW 0 85.2 642
18:31:46 11 993 0 3 W 0 85.1 648
18:34:45 11 993 0 1 N 0 85.1 653
18:37:49 11 993 0 2 NW 0 85.2 657
18:40:50 11 993 0 10 NW 0 85 666
18:43:50 11 993 0 23 S 0 84.7 664
18:46:46 11 993 0 7 SW 0 84.7 661
18:49:45 11 993 0 5 SO 0 84.8 664
18:52:45 11 993 0 9 S 0 85 667
18:55:46 11 993 0 7 W 0 85.3 673
18:58:48 11 993 0 5 S 0 85.9 671
19:01:47 11 993 0 9 W 0 86.3 676
19:04:48 11 993 0 0 SW 0 86.5 679
19:07:47 11 993 0 5 O 0 86.6 685
19:10:45 11 992 0 3 0 86.9 679
19:13:49 11 992 0 7 SW 0 86.9 682
19:16:48 11 993 0 8 SW 0 87 679
19:19:49 11 992 0 15 W 0 86.9 685
19:22:50 11 993 0 25 SW 0 86.9 684
19:25:47 11 992 0 5 SW 0 87 685
19:28:48 11 992 0 11 SO 0 87.1 685
19:31:47 11 993 0 6 W 0 87.2 688
19:34:46 11 993 0 8 SW 0 87.2 694
19:37:46 11 992 0 4 SW 0 87.2 691
19:40:46 11 992 0 2 W 0 87.1 693
19:43:48 11 992 0 15 SO 0 86.9 696
19:46:47 11 992 0 3 SW 0 86.9 696
19:49:47 11 993 0 4 W 0 86.7 703
19:52:47 11 992 0 5 W 0 86.7 696
19:55:47 11 993 0 6 NO 0 86.9 700
19:58:48 11 993 0 9 SW 0 87.2 705
20:01:49 11 993 0 6 SW 0 87.4 708
20:04:44 10 992 0 8 S 0 87.4 711
20:07:48 10 992 0 10 NO 0 87.6 717
20:10:49 10 992 0 17 SO 0 87.8 731
20:13:45 10 992 0 9 S 0 87.7 736
20:16:46 10 992 0 4 SO 0 87.6 735
20:19:47 10 992 0 5 SW 0 87.4 743
20:22:45 10 992 0 8 S 0 87.4 742
20:25:50 10 993 0 12 W 0 87.3 738
20:28:47 10 992 0 6 W 0 87.3 744
20:31:45 10 993 0 5 SW 0 87.5 746
20:34:49 10 993 0 3 SO 0 87.8 746
20:37:48 10 993 0 3 SO 0 88 741
20:40:48 10 992 0 6 NW 0 88.1 746
20:43:49 10 992 0 7 SW 0 88.1 744
20:46:49 10 993 0 12 SW 0 88.2 736
20:49:51 10 992 0 13 NW 0 88.1 756
20:52:54 10 993 0 8 SO 0 88.1 752
20:55:46 10 992 0 4 SW 0 87.9 757
20:58:48 10 993 0 7 SW 0 88 758
21:01:48 10 993 0 5 SW 0 88.2 769
21:04:46 10 992 0 5 W 0 88.5 768
21:07:45 10 992 0 4 O 0 88.6 775
21:10:44 10 992 0 4 S 0 89.2 770
21:13:48 10 992 0 6 NW 0 89.9 772
21:16:46 9 992 0 10 W 0 90.4 773
21:19:45 9 991 0 4 W 0 91.1 770
21:22:46 9 992 0 6 SO 0 91.4 773
21:25:45 9 992 0 2 S 0 91.7 777
21:28:48 9 992 0 4 SO 0 92.3 789
21:31:46 9 991 0 5 SW 0 92.8 790
21:34:46 9 991 0 2 W 0 93.6 791
21:37:46 9 992 0 4 O 0 93.6 777
21:40:47 9 992 0 3 W 0 94 782
21:43:47 9 991 0 6 W 0 94.2 784
21:46:45 9 991 0 4 S 0 94.3 801
21:49:46 9 991 0 5 W 0 94.4 805
21:52:46 9 991 0 2 SW 0 94.4 805
21:55:49 9 992 0 4 NW 0 94.2 804
21:58:46 9 991 0 0 O 0 94.2 814
22:01:46 9 991 0 3 S 0 94.3 807
22:04:45 9 991 0 2 N 0 95.3 805
22:07:46 9 991 0 3 S 0 95.4 809
22:10:46 9 991 0 6 S 0 94.9 813
22:13:46 10 991 0 7 S 0 94.4 812
22:16:47 10 991 0 1 S 0 93.8 811
22:19:45 10 991 0 5 S 0 93.6 811
22:22:48 10 991 0 2 S 0 93.1 813
22:25:47 10 991 0 3 S 0 92.9 820
22:28:45 10 991 0 6 S 0 92.9 818
22:31:47 10 991 0 2 SW 0 92.7 826
22:34:46 9 991 0 6 S 0 92.6 828
22:37:50 9 991 0 2 SO 0 92.8 700
22:40:47 10 992 0 3 N 0 93 697
22:43:49 10 991 0 3 SW 0 92.8 693
22:46:47 10 991 0 1 SO 0 92.5 700
22:49:48 10 991 0 3 SO 0 92.3 708
22:52:49 10 991 0 2 SW 0 92.2 713
22:55:47 10 991 0 5 S 0 91.9 703
22:58:45 10 991 0 3 S 0 92 703
23:01:49 10 991 0 3 S 0 92 709
23:04:46 10 991 0 2 SW 0 92 723
23:07:44 10 991 0 5 S 0 91.7 717
23:10:50 10 991 0 13 NW 0 91.4 714
23:13:45 10 991 0 8 S 0 90.9 714
23:16:47 10 991 0 15 S 0 90.2 717
23:19:48 10 991 0 3 SW 0 90.1 718
23:22:46 10 991 0 6 W 0 90 718
23:25:45 10 991 0 4 S 0 89.8 722
23:28:47 10 991 0 6 SO 0 89.6 726
23:31:46 10 991 0 4 S 0 89.3 731
23:34:47 10 991 0 7 W 0 89.1 730
23:37:49 10 991 0 14 NW 0 88.8 723
23:40:46 10 991 0 8 O 0 88.3 724
23:43:47 10 991 0 9 S 0 88.1 729
23:46:49 10 991 0 15 SO 0 88 726
23:49:45 10 991 0 7 S 0 87.9 728
23:52:46 10 991 0 5 SW 0 87.7 728
23:55:47 10 991 0 6 S 0 88.1 735
23:58:47 10 992 0 5 W 0 88.3 737

Letzte Änderung : 04-Jan-2022
Copyright Jens Köhler, Wolfsburg, Obere Dorfstraße 10d